Alva, OK

3:47 AM CST on December 06, 2016 (GMT -0600)
Alva Regional

Weather History for KAVK - July, 2013

Change the Weather History Date:

Wednesday, July 24, 2013

  Actual Average Record
Temperature  
Mean Temperature 80 °F -  
Max Temperature 93 °F 95 °F 107 °F (1964)
Min Temperature 68 °F 69 °F 59 °F (1989)
Cooling Degree Days 16    
Growing Degree Days 30 (Base 50)    
Moisture  
Dew Point 66 °F    
Average Humidity 64    
Maximum Humidity 88    
Minimum Humidity 41    
Precipitation  
Precipitation 0.00 in - - ()
Sea Level Pressure  
Sea Level Pressure 30.00 in    
Wind  
Wind Speed 12 mph (ENE)    
Max Wind Speed 24 mph    
Max Gust Speed 31 mph    
Visibility 10 miles    
Events      
Averages and records for this station are not official NWS values.
T = Trace of Precipitation, MM = Missing Value Source: NWS Daily Summary

Daily Weather History Graph

Daily Weather History Graph

Search for Another Location

Airport or City:

Trip Planner

Search our weather history database for the weather conditions in past years. The results will help you decide how hot, cold, wet, or windy it might be!

Date:

Astronomy

Jul. 24, 2013 Rise Set
Actual Time 6:34 AM CDT 8:47 PM CDT
Civil Twilight 6:05 AM CDT 9:16 PM CDT
Nautical Twilight 5:29 AM CDT 9:52 PM CDT
Astronomical Twilight 4:50 AM CDT 10:31 PM CDT
Moon 10:00 PM CDT (7/24) 8:51 AM CDT (7/24)
Length of Visible Light 15h 11m
Length of Day
14h 13m
Waning Gibbous, 94% of the Moon is Illuminated
Jul 24
Waning Gibbous
Jul 29
Last Quarter
Aug 6
New
Aug 14
First Quarter
Aug 20
Full

Hourly Weather History & Observations

Time (CDT) Temp. Heat Index Dew Point Humidity Pressure Visibility Wind Dir Wind Speed Gust Speed Precip Events Conditions
12:00 AM 77.0 °F - 66.2 °F 69% 29.90 in 10.0 mi NNE 24.2 mph 31.1 mph N/A   Partly Cloudy
12:20 AM 73.4 °F - 66.2 °F 78% 29.91 in 10.0 mi NNE 19.6 mph 28.8 mph N/A   Partly Cloudy
12:40 AM 75.2 °F - 68.0 °F 78% 29.92 in 10.0 mi NE 18.4 mph 24.2 mph N/A   Scattered Clouds
1:00 AM 73.4 °F - 68.0 °F 83% 29.92 in 10.0 mi ENE 18.4 mph 24.2 mph N/A   Scattered Clouds
1:20 AM 73.4 °F - 66.2 °F 78% 29.93 in 10.0 mi ENE 19.6 mph 24.2 mph N/A   Mostly Cloudy
1:45 AM 73.4 °F - 64.4 °F 73% 29.94 in 10.0 mi NE 12.7 mph - N/A   Overcast
2:00 AM 73.4 °F - 64.4 °F 73% 29.93 in 10.0 mi East 9.2 mph - N/A   Mostly Cloudy
2:25 AM 73.4 °F - 64.4 °F 73% 29.93 in 10.0 mi ENE 4.6 mph - N/A   Partly Cloudy
2:40 AM 71.6 °F - 64.4 °F 78% 29.92 in 10.0 mi SE 3.5 mph - N/A   Partly Cloudy
3:00 AM 71.6 °F - 64.4 °F 78% 29.93 in 10.0 mi NE 4.6 mph - N/A   Scattered Clouds
3:20 AM 71.6 °F - 66.2 °F 83% 29.93 in 10.0 mi NE 6.9 mph - N/A   Scattered Clouds
3:40 AM 71.6 °F - 66.2 °F 83% 29.95 in 10.0 mi NE 9.2 mph - N/A   Scattered Clouds
4:00 AM 71.6 °F - 66.2 °F 83% 29.96 in 10.0 mi NNE 12.7 mph - N/A   Overcast
4:20 AM 71.6 °F - 66.2 °F 83% 29.95 in 10.0 mi NE 6.9 mph - N/A   Overcast
4:40 AM 71.6 °F - 66.2 °F 83% 29.96 in 10.0 mi NE 8.1 mph - N/A   Overcast
5:00 AM 71.6 °F - 66.2 °F 83% 29.98 in 10.0 mi NE 5.8 mph - N/A   Mostly Cloudy
5:20 AM 71.6 °F - 66.2 °F 83% 30.00 in 10.0 mi ESE 6.9 mph - N/A   Overcast
5:40 AM 71.6 °F - 68.0 °F 88% 30.00 in 10.0 mi ESE 5.8 mph - N/A   Overcast
6:00 AM 71.6 °F - 68.0 °F 88% 30.02 in 10.0 mi SE 11.5 mph - N/A   Overcast
6:20 AM 69.8 °F - 66.2 °F 88% 30.03 in 10.0 mi SE 11.5 mph - N/A   Overcast
6:45 AM 68.0 °F - 64.4 °F 88% 30.03 in 10.0 mi SE 11.5 mph - N/A   Overcast
7:05 AM 68.0 °F - 64.4 °F 88% 30.03 in 10.0 mi SSE 10.4 mph 17.3 mph N/A   Overcast
7:20 AM 68.0 °F - 64.4 °F 88% 30.04 in 10.0 mi SSE 9.2 mph - N/A   Overcast
7:40 AM 68.0 °F - 64.4 °F 88% 30.04 in 10.0 mi South 6.9 mph - N/A   Overcast
8:00 AM 68.0 °F - 64.4 °F 88% 30.04 in 10.0 mi South 5.8 mph - N/A   Overcast
8:20 AM 69.8 °F - 64.4 °F 83% 30.05 in 10.0 mi South 4.6 mph - N/A   Overcast
8:40 AM 71.6 °F - 64.4 °F 78% 30.05 in 10.0 mi SSW 4.6 mph - N/A   Mostly Cloudy
9:00 AM 73.4 °F - 64.4 °F 73% 30.05 in 10.0 mi Calm Calm - N/A   Clear
9:20 AM 73.4 °F - 64.4 °F 73% 30.04 in 10.0 mi West 3.5 mph - N/A   Clear
9:40 AM 75.2 °F - 64.4 °F 69% 30.05 in 10.0 mi West 3.5 mph - N/A   Clear
10:00 AM 77.0 °F - 66.2 °F 69% 30.04 in 10.0 mi NW 5.8 mph - N/A   Clear
10:20 AM 77.0 °F - 66.2 °F 69% 30.06 in 10.0 mi NNW 6.9 mph - N/A   Clear
10:40 AM 78.8 °F - 66.2 °F 65% 30.06 in 10.0 mi North 8.1 mph - N/A   Clear
11:00 AM 80.6 °F 82.7 °F 66.2 °F 61% 30.06 in 10.0 mi NNW 9.2 mph - N/A   Clear
11:20 AM 80.6 °F 82.7 °F 66.2 °F 61% 30.05 in 10.0 mi NNW 8.1 mph - N/A   Clear
11:45 AM 84.2 °F 86.6 °F 66.2 °F 55% 30.05 in 10.0 mi North 5.8 mph - N/A   Clear
12:00 PM 84.2 °F 86.6 °F 66.2 °F 55% 30.05 in 10.0 mi North 9.2 mph - N/A   Clear
12:20 PM 84.2 °F 86.6 °F 66.2 °F 55% 30.05 in 10.0 mi North 6.9 mph - N/A   Clear
12:40 PM 86.0 °F 88.2 °F 66.2 °F 51% 30.04 in 10.0 mi NNW 6.9 mph - N/A   Clear
1:05 PM 89.6 °F 92.2 °F 66.2 °F 46% 30.04 in 10.0 mi North 6.9 mph - N/A   Clear
1:20 PM 89.6 °F 92.2 °F 66.2 °F 46% 30.03 in 10.0 mi North 11.5 mph 17.3 mph N/A   Clear
1:40 PM 89.6 °F 92.2 °F 66.2 °F 46% 30.03 in 10.0 mi North 9.2 mph - N/A   Clear
2:00 PM 89.6 °F 92.2 °F 66.2 °F 46% 30.03 in 10.0 mi NNE 11.5 mph 19.6 mph N/A   Clear
2:20 PM 91.4 °F 94.0 °F 66.2 °F 43% 30.02 in 10.0 mi North 9.2 mph 23.0 mph N/A   Clear
2:40 PM 91.4 °F 94.0 °F 66.2 °F 43% 30.02 in 10.0 mi NE 10.4 mph - N/A   Clear
3:00 PM 91.4 °F 93.2 °F 64.4 °F 41% 30.01 in 10.0 mi NE 10.4 mph - N/A   Clear
3:20 PM 91.4 °F 94.0 °F 66.2 °F 43% 30.01 in 10.0 mi East 9.2 mph 16.1 mph N/A   Clear
3:40 PM 91.4 °F 94.0 °F 66.2 °F 43% 30.00 in 10.0 mi ESE 4.6 mph - N/A   Clear
4:00 PM 91.4 °F 94.0 °F 66.2 °F 43% 30.00 in 10.0 mi East 8.1 mph 19.6 mph N/A   Partly Cloudy
4:20 PM 93.2 °F 96.2 °F 66.2 °F 41% 29.99 in 10.0 mi ENE 10.4 mph - N/A   Clear
4:40 PM 93.2 °F 96.2 °F 66.2 °F 41% 29.98 in 10.0 mi East 11.5 mph 18.4 mph N/A   Partly Cloudy
5:00 PM 91.4 °F 94.0 °F 66.2 °F 43% 29.98 in 10.0 mi ENE 12.7 mph 17.3 mph N/A   Partly Cloudy
5:20 PM 91.4 °F 93.2 °F 64.4 °F 41% 29.98 in 10.0 mi East 11.5 mph 19.6 mph N/A   Clear
5:40 PM 91.4 °F 94.0 °F 66.2 °F 43% 29.98 in 10.0 mi East 11.5 mph 19.6 mph N/A   Clear
6:00 PM 91.4 °F 94.0 °F 66.2 °F 43% 29.98 in 10.0 mi East 15.0 mph 20.7 mph N/A   Partly Cloudy
6:20 PM 89.6 °F 92.2 °F 66.2 °F 46% 29.98 in 10.0 mi East 12.7 mph 18.4 mph N/A   Scattered Clouds
6:40 PM 89.6 °F 91.1 °F 64.4 °F 43% 29.98 in 10.0 mi ENE 12.7 mph - N/A   Partly Cloudy
7:05 PM 89.6 °F 92.2 °F 66.2 °F 46% 29.99 in 10.0 mi East 12.7 mph 17.3 mph N/A   Scattered Clouds
7:20 PM 89.6 °F 91.1 °F 64.4 °F 43% 29.99 in 10.0 mi East 12.7 mph - N/A   Partly Cloudy
7:40 PM 89.6 °F 91.1 °F 64.4 °F 43% 29.99 in 10.0 mi East 11.5 mph - N/A   Partly Cloudy
8:00 PM 86.0 °F 88.2 °F 66.2 °F 51% 29.99 in 10.0 mi ESE 13.8 mph - N/A   Partly Cloudy
8:20 PM 86.0 °F 88.2 °F 66.2 °F 51% 29.99 in 10.0 mi East 11.5 mph - N/A   Clear
8:40 PM 84.2 °F 86.6 °F 66.2 °F 55% 30.00 in 10.0 mi East 11.5 mph - N/A   Clear
9:00 PM 84.2 °F 86.6 °F 66.2 °F 55% 30.01 in 10.0 mi ESE 11.5 mph - N/A   Clear
9:20 PM 82.4 °F 84.6 °F 66.2 °F 58% 30.02 in 10.0 mi ESE 9.2 mph - N/A   Clear
9:40 PM 82.4 °F 84.6 °F 66.2 °F 58% 30.03 in 10.0 mi ESE 9.2 mph - N/A   Clear
10:00 PM 80.6 °F 82.7 °F 66.2 °F 61% 30.05 in 10.0 mi ESE 6.9 mph - N/A   Clear
10:20 PM 78.8 °F - 66.2 °F 65% 30.06 in 10.0 mi SE 6.9 mph - N/A   Clear
10:40 PM 77.0 °F - 66.2 °F 69% 30.06 in 10.0 mi SE 8.1 mph - N/A   Clear
11:05 PM 77.0 °F - 68.0 °F 74% 30.06 in 10.0 mi SE 9.2 mph - N/A   Clear
11:20 PM 77.0 °F - 68.0 °F 74% 30.06 in 10.0 mi SE 9.2 mph - N/A   Clear
11:40 PM 75.2 °F - 68.0 °F 78% 30.05 in 10.0 mi SE 6.9 mph - N/A   Clear